Location: Caltech
(34.1382°N, 118.1253°W)
Time: 03:18:50
(UTC-07:00)

Cosmos 1125 Rocket - Visible Passes

Search period start: 28 July 2014 00:00
Search period end: 07 August 2014 00:00
Orbit: 758 x 782 km, 74.0° (Epoch: 28 July)

Date Brightness Start Highest point End Pass type
(mag) Time Alt. Az. Time Alt. Az. Time Alt. Az.
28 Jul 5.5 20:16:47 10° NNE 20:19:02 13° ENE 20:21:16 10° E visible
28 Jul 3.7 21:56:24 10° NNW 22:01:39 69° WSW 22:03:27 41° S visible
29 Jul 3.5 21:20:01 10° NNW 21:25:17 67° ENE 21:28:02 28° SSE visible
29 Jul 6.1 23:05:20 10° W 23:06:40 11° W 23:07:59 10° WSW visible
30 Jul 4.2 20:43:55 10° N 20:48:49 38° ENE 20:52:42 15° SE visible
30 Jul 5.6 22:26:46 10° NW 22:30:34 21° W 22:33:02 15° SW visible
31 Jul 4.8 21:49:36 10° NW 21:54:24 37° W 21:57:44 18° SSW visible
01 Aug 3.8 21:12:54 10° NNW 21:18:07 67° WSW 21:22:31 14° S visible
02 Aug 3.5 20:36:30 10° NNW 20:41:46 69° ENE 20:46:56 10° SSE visible
02 Aug 6.3 22:22:10 10° W 22:23:08 11° W 22:24:05 10° WSW visible
03 Aug 5.8 21:43:19 10° NW 21:47:02 20° W 21:50:44 10° SW visible
04 Aug 5.0 21:06:07 10° NW 21:10:52 35° W 21:15:33 10° SSW visible
05 Aug 4.0 20:29:24 10° NNW 20:34:36 65° WSW 20:39:44 10° S visible
06 Aug 6.6 21:39:20 10° W 21:39:35 10° W 21:39:50 10° W visible
